Waarnemingen

Advertentie
Mijn weer
Huelva, Spanje (8383): temperatuur & dauwpunt: 15.02.2018 14:00:00 - 21.02.2018 14:00:00 (CET)Huelva, Spanje (8383): windsnelheid: 15.02.2018 14:00:00 - 21.02.2018 14:00:00 (CET)Huelva, Spanje (8383): windrichting: 15.02.2018 14:00:00 - 21.02.2018 14:00:00 (CET)Huelva, Spanje (8383): luchtdruk: 15.02.2018 14:00:00 - 21.02.2018 14:00:00 (CET)Huelva, Spanje (8383): zicht: 15.02.2018 14:00:00 - 21.02.2018 14:00:00 (CET)Huelva, Spanje (8383): neerslag: 15.02.2018 14:00:00 - 21.02.2018 14:00:00 (CET)
Datum & Tijd tt [°C] td [°C] ff [km/u] ff [kn] dd ppp [hPa] vv [km] rr [mm]
21.02.2018 14:00:00 - - - - - - - -
21.02.2018 13:00:00 18,3 3,0 11 6 O 1010,2 20 -
21.02.2018 12:00:00 16,7 3,4 13 7 ONO 1011,0 20 0,0
21.02.2018 11:00:00 13,4 5,3 5 3 NO 1011,1 20 0,0
21.02.2018 10:00:00 10,0 4,6 5 3 NO 1011,5 12 -
21.02.2018 09:00:00 7,8 4,2 5 3 NNO 1011,3 20 0,0
21.02.2018 08:00:00 6,6 3,7 4 2 N 1011,0 20 0,0
21.02.2018 07:00:00 7,0 3,8 8 4 N 1011,0 20 -
21.02.2018 06:00:00 7,0 3,6 5 3 NNO 1011,3 20 0,0
21.02.2018 05:00:00 8,1 3,9 8 4 NNO 1011,4 20 0,0
21.02.2018 04:00:00 8,8 3,4 4 2 NO 1012,2 20 -
21.02.2018 03:00:00 10,6 3,8 4 2 W 1012,9 20 0,0
21.02.2018 02:00:00 12,2 4,2 9 5 NW 1013,2 20 0,0
21.02.2018 01:00:00 11,4 4,1 9 5 NNW 1013,6 20 -
21.02.2018 00:00:00 11,6 5,7 5 3 NNO 1014,0 20 0,0
20.02.2018 23:00:00 12,5 5,2 4 2 NNO 1014,4 20 0,0
20.02.2018 22:00:00 13,9 5,8 9 5 NNO 1014,5 20 -
20.02.2018 21:00:00 14,8 5,8 5 3 WZW 1014,4 20 0,0
20.02.2018 20:00:00 15,7 7,5 11 6 WZW 1014,6 20 0,0
20.02.2018 19:00:00 17,7 6,8 11 6 WZW 1014,4 20 -
20.02.2018 18:00:00 19,7 6,8 15 8 ZW 1014,5 20 0,0
20.02.2018 17:00:00 22,0 7,8 13 7 ZW 1014,6 20 0,0
20.02.2018 16:00:00 23,1 5,0 8 4 WNW 1015,1 20 -
20.02.2018 15:00:00 21,8 4,4 9 5 ONO 1015,6 20 0,0
20.02.2018 14:00:00 21,2 5,1 5 3 ONO 1016,7 20 0,0
20.02.2018 13:00:00 20,0 5,6 8 4 OZO 1017,6 25 -
20.02.2018 12:00:00 17,7 5,3 11 6 O 1018,2 20 0,0
20.02.2018 11:00:00 14,1 5,2 5 3 NO 1018,7 20 0,0
20.02.2018 10:00:00 10,1 4,0 4 2 NO 1018,8 15 -
20.02.2018 09:00:00 6,3 2,9 4 2 NNO 1018,4 20 0,0
20.02.2018 08:00:00 5,1 2,3 5 3 NNO 1017,9 20 0,0
20.02.2018 07:00:00 5,7 2,9 5 3 N 1017,7 18 -
20.02.2018 06:00:00 5,0 2,7 4 2 N 1017,7 20 0,0
20.02.2018 05:00:00 6,0 3,0 5 3 NNO 1017,6 20 0,0
20.02.2018 04:00:00 6,4 3,0 2 1 O 1017,6 20 -
20.02.2018 03:00:00 7,5 3,4 4 2 NNO 1017,8 20 0,0
20.02.2018 02:00:00 7,6 3,3 5 3 NNO 1018,0 20 0,0
20.02.2018 01:00:00 8,3 3,9 5 3 NNO 1018,1 20 -
20.02.2018 00:00:00 9,2 4,4 5 3 NO 1018,1 20 0,0
19.02.2018 23:00:00 10,1 5,9 4 2 NNO 1017,9 20 0,0
19.02.2018 22:00:00 11,4 5,9 4 2 ONO 1018,1 20 -
19.02.2018 21:00:00 12,2 5,6 5 3 WNW 1017,7 20 0,0
19.02.2018 20:00:00 13,5 5,6 11 6 W 1017,7 20 0,0
19.02.2018 19:00:00 15,3 4,0 13 7 WZW 1017,3 20 -
19.02.2018 18:00:00 17,8 3,6 13 7 ZW 1017,0 20 0,0
19.02.2018 17:00:00 18,9 3,5 13 7 ZW 1016,9 19 0,0
19.02.2018 16:00:00 18,9 4,3 18 10 Z 1017,0 20 -
19.02.2018 15:00:00 19,9 5,2 18 10 Z 1017,2 15 0,0
19.02.2018 14:00:00 19,7 3,4 8 4 Z 1018,1 20 0,0
19.02.2018 13:00:00 18,1 2,0 5 3 NNO 1018,7 18 -
19.02.2018 12:00:00 16,2 3,6 8 4 O 1019,3 20 0,0
19.02.2018 11:00:00 12,8 5,5 5 3 N 1019,2 20 0,0
19.02.2018 10:00:00 9,1 5,6 5 3 NNO 1019,2 4,0 -
19.02.2018 09:00:00 6,6 4,4 5 3 N 1019,1 20 0,0
19.02.2018 08:00:00 6,3 5,4 5 3 N 1018,6 18 0,0
19.02.2018 07:00:00 - - - - - - - -
19.02.2018 06:00:00 - - - - - - - -
19.02.2018 05:00:00 - - - - - - - -
19.02.2018 04:00:00 - - - - - - - -
19.02.2018 03:00:00 - - - - - - - -
19.02.2018 02:00:00 - - - - - - - -
19.02.2018 01:00:00 - - - - - - - -
19.02.2018 00:00:00 - - - - - - - -
18.02.2018 23:00:00 - - - - - - - -
18.02.2018 22:00:00 - - - - - - - -
18.02.2018 21:00:00 - - - - - - - -
18.02.2018 20:00:00 - - - - - - - -
18.02.2018 19:00:00 - - - - - - - -
18.02.2018 18:00:00 - - - - - - - -
18.02.2018 17:00:00 - - - - - - - -
18.02.2018 16:00:00 - - - - - - - -
18.02.2018 15:00:00 - - - - - - - -
18.02.2018 14:00:00 - - - - - - - -
18.02.2018 13:00:00 - - - - - - - -
18.02.2018 12:00:00 - - - - - - - -
18.02.2018 11:00:00 - - - - - - - -
18.02.2018 10:00:00 - - - - - - - -
18.02.2018 09:00:00 - - - - - - - -
18.02.2018 08:00:00 - - - - - - - -
18.02.2018 07:00:00 - - - - - - - -
18.02.2018 06:00:00 - - - - - - - -
18.02.2018 05:00:00 - - - - - - - -
18.02.2018 04:00:00 - - - - - - - -
18.02.2018 03:00:00 - - - - - - - -
18.02.2018 02:00:00 - - - - - - - -
18.02.2018 01:00:00 - - - - - - - -
18.02.2018 00:00:00 - - - - - - - -
17.02.2018 23:00:00 - - - - - - - -
17.02.2018 22:00:00 - - - - - - - -
17.02.2018 21:00:00 - - - - - - - -
17.02.2018 20:00:00 13,1 10,5 11 6 ZW 1022,6 20 0,0
17.02.2018 19:00:00 13,7 9,9 13 7 ZW 1022,6 20 -
17.02.2018 18:00:00 15,0 8,9 16 9 WZW 1022,3 20 0,0
17.02.2018 17:00:00 17,7 10,8 13 7 ZZW 1022,2 15 0,0
17.02.2018 16:00:00 18,1 10,9 13 7 ZZW 1022,3 13 -
17.02.2018 15:00:00 17,6 10,5 8 4 Z 1022,9 13 0,0
17.02.2018 14:00:00 16,2 10,5 5 3 Z 1023,6 12 0,0
17.02.2018 13:00:00 14,3 10,3 5 3 W 1024,4 14 -
17.02.2018 12:00:00 10,8 9,7 5 3 ZO 1025,1 8 0,0
17.02.2018 11:00:00 9,9 9,4 4 2 ONO 1025,1 5 0,0
17.02.2018 10:00:00 9,8 9,5 4 2 N 1024,8 3,6 -
17.02.2018 09:00:00 9,3 9,2 8 4 N 1024,5 2,9 0,0
17.02.2018 08:00:00 9,2 9,1 5 3 N 1024,1 3,7 0,0
17.02.2018 07:00:00 8,8 8,7 8 4 N 1023,8 3,9 -
17.02.2018 06:00:00 8,9 8,4 5 3 N 1023,5 - 0,0
17.02.2018 05:00:00 8,9 8,4 4 2 NW 1023,3 8 0,0
17.02.2018 04:00:00 8,7 7,9 9 5 WNW 1023,5 13 -
17.02.2018 03:00:00 9,5 8,4 9 5 WNW 1023,5 14 0,0
17.02.2018 02:00:00 9,8 8,6 13 7 WNW 1023,6 11 0,0
17.02.2018 01:00:00 10,1 8,9 11 6 WNW 1024,1 11 -
17.02.2018 00:00:00 10,5 9,1 9 5 WNW 1024,2 10 0,0
16.02.2018 23:00:00 11,3 9,6 9 5 WNW 1024,0 12 0,0
16.02.2018 22:00:00 12,9 10,8 11 6 W 1023,8 17 -
16.02.2018 21:00:00 13,5 11,2 15 8 W 1023,1 20 0,0
16.02.2018 20:00:00 14,1 10,9 16 9 WZW 1022,9 20 0,0
16.02.2018 19:00:00 16,0 9,4 15 8 WZW 1022,6 20 -
16.02.2018 18:00:00 18,1 10,0 16 9 WZW 1022,4 20 0,0
16.02.2018 17:00:00 18,8 9,8 21 11 ZW 1022,3 20 0,0
16.02.2018 16:00:00 20,6 10,1 18 10 WZW 1022,1 20 -
16.02.2018 15:00:00 21,6 10,1 13 7 ZW 1022,5 20 0,0
16.02.2018 14:00:00 21,6 9,8 8 4 ZZW 1023,4 20 0,0
16.02.2018 13:00:00 19,7 9,8 5 3 NO 1024,3 18 -
16.02.2018 12:00:00 17,2 9,9 4 2 NO 1024,8 20 0,0
16.02.2018 11:00:00 13,0 9,1 4 2 N 1025,1 20 0,0
16.02.2018 10:00:00 9,6 7,4 5 3 NNO 1025,1 10 -
16.02.2018 09:00:00 6,1 5,4 4 2 NNO 1024,8 16 0,0
16.02.2018 08:00:00 6,0 5,0 2 1 NO 1024,1 20 0,0
16.02.2018 07:00:00 6,1 5,5 4 2 NNO 1024,0 15 -
16.02.2018 06:00:00 6,0 4,8 4 2 NNO 1023,8 20 0,0
16.02.2018 05:00:00 6,9 5,5 5 3 NNO 1024,0 20 0,0
16.02.2018 04:00:00 8,3 6,8 5 3 N 1024,4 20 -
16.02.2018 03:00:00 8,3 6,6 5 3 NNO 1024,5 20 0,0
16.02.2018 02:00:00 8,0 5,6 4 2 NNO 1024,6 19 0,0
16.02.2018 01:00:00 8,8 6,2 5 3 NO 1025,0 20 -
16.02.2018 00:00:00 11,2 7,3 8 4 NW 1025,1 20 0,0
15.02.2018 23:00:00 11,0 7,5 5 3 WNW 1025,4 20 0,0
15.02.2018 22:00:00 12,0 7,7 9 5 WNW 1025,3 20 -
15.02.2018 21:00:00 12,8 7,0 8 4 W 1024,8 20 0,0
15.02.2018 20:00:00 14,1 6,9 11 6 W 1024,7 20 0,0
15.02.2018 19:00:00 16,7 7,3 8 4 WZW 1024,4 20 -
15.02.2018 18:00:00 19,0 8,3 13 7 WZW 1024,5 20 0,0
15.02.2018 17:00:00 19,4 8,7 13 7 ZW 1024,7 20 0,0
15.02.2018 16:00:00 20,7 8,7 8 4 ZZW 1025,0 20 -
15.02.2018 15:00:00 19,7 7,1 8 4 ONO 1025,3 20 0,0
15.02.2018 14:00:00 19,1 7,8 8 4 ZO 1025,9 20 0,0

tt = temperatuur
td = dauwpunt
ff = windsnelheid
dd = windrichting
ppp = luchtdruk
vv = zicht
rr = neerslag

Weerstations in de omgeving